Tracking 19176 objects as of 27-May-2018
HD Live streaming from Space Station
objects crossing your sky now

COSMOS 2172

Track COSMOS 2172 now!
COSMOS 2172 is classified as:


NORAD ID: 21789
Int'l Code: 1991-079A
Perigee: 35,767.9 km
Apogee: 35,828.2 km
Inclination: 15.0 °
Period: 1,436.3 minutes
Semi major axis: 42169 km
RCS: 5.0118 m2 (large)
Launch date: November 22, 1991
Source: Commonwealth of Independent States (former USSR) (CIS)
Launch site: TYURATAM MISSILE AND SPACE COMPLEX (TTMTR)
aabbcc
Your satellite tracking list
Your tracking list is empty




NASA's NSSDC Master Catalog

Two Line Element Set (TLE):
1 21789U 91079A   18146.82985021  .00000012  00000-0  00000+0 0  9990
2 21789  15.0453   5.2726 0007152 310.9566  47.9233  1.00256471102180
Source of the keplerian elements: AFSPC